Regional Weather Roundup
Issued by NWS Upton, NY

Current Version | Previous Version | Text Only | Print | Product List | Glossary Off
Versions: 1 2 3 4 5 6 7 8 9 10 11 12 13 14 15 16 17 18 19 20 21 22 23 24 25 26 27

000
ASUS41 KOKX 181205
RWROKX

Regional Weather Roundup
National Weather Service New York NY
700 AM EST SUN FEB 18 2018

Note: "FAIR" indicates few or no clouds below 12,000 feet with no
significant weather and/or obstructions to visibility.

NYZ071-072-176-178-NJZ106-104-181300-
New York City Metro Area

CITY           SKY/WX    TMP DP  RH WIND       PRES   REMARKS
Central Park   FAIR      35  29  78 W7        30.13R WCI  29
Bronx Bot Gard   N/A     34  30  86 W22       30.12R WCI  22
Bronx Lehman C   N/A     34  30  86 NW10        N/A  WCI  26
LaGuardia Arpt FAIR      36  29  75 NW15      30.12R WCI  27
Queens College   N/A     36  30  80 NW9         N/A  WCI  29
Kennedy Intl   FAIR      35  29  78 NW17G26   30.12R WCI  25
Breezy Point     N/A     34 N/A N/A NW12G17     N/A  WCI  25
Brooklyn Coll    N/A     36  30  80 NW14        N/A  WCI  27
Staten Island    N/A     34  30  86 NW8         N/A  WCI  27
Newark/Liberty FAIR      34  28  79 NW14      30.12R WCI  25
Teterboro      FAIR      34  28  79 N8        30.11R WCI  27
$$

NYZ177-179-078>081-181300-
Long Island New York

CITY           SKY/WX    TMP DP  RH WIND       PRES   REMARKS
Jones Beach      N/A     36 N/A N/A NW17        N/A  WCI  25
Wantagh          N/A     34  32  93 NW10        N/A  WCI  26
Hempstead        N/A     34  32  93 NW12      30.13R WCI  25
Matinecock Pt    N/A     36 N/A N/A W10         N/A  WCI  28
Farmingdale    FAIR      34  30  85 NW8G17    30.10R WCI  27
MacArthur/ISP  FAIR      34  31  88 NW15      30.08R WCI  24
Shirley        FAIR      34  32  92 NW16      30.08R WCI  24
Mt Sinai Harb    N/A    N/A N/A N/A W10G16      N/A
Westhampton    FAIR      34  31  88 NW15G23   30.07R WCI  24
East Hampton   CLOUDY    33  32  95 NW12G21   30.05R WCI  24
Southold         N/A     34  32  93 NW9         N/A  WCI  26
Montauk          N/A     35  33  92 NW14G23   30.04R WCI  26
$$

NYZ052-065-067-181300-
Hudson Valley

CITY           SKY/WX    TMP DP  RH WIND       PRES   REMARKS
White Plains   FAIR      33  27  78 NW18G24   30.07R WCI  22
Larchmont Harb   N/A     34 N/A N/A W10G16      N/A  WCI  26
Croton On Huds   N/A     32 N/A N/A NW8         N/A  WCI  25
Somers           N/A     32  28  86 NW6         N/A  WCI  26
Brewster         N/A     32  27  80 N6          N/A  WCI  26
Newburgh       PTCLDY    30  27  86 W5        30.11R WCI  25
Montgomery     FAIR      33  21  61 NW14G26   30.09R WCI  23
Otisville        N/A     32  23  69 NW12G33     N/A  WCI  23
Warwick          N/A     32  27  80 NW6         N/A  WCI  26
Suffern          N/A     32  27  80 NW14G25     N/A  WCI  22
Poughkeepsie   CLOUDY    32  26  78 W6        30.10R WCI  26
Albany         FAIR      31  23  72 NW6       30.13R WCI  25
$$

NJZ001-105-106-008-010-013-015-019>022-104-181300-
New Jersey

CITY           SKY/WX    TMP DP  RH WIND       PRES   REMARKS
Newark/Liberty FAIR      34  28  79 NW14      30.12R WCI  25
Teterboro      FAIR      34  28  79 N8        30.11R WCI  27
Caldwell       FAIR      32  28  85 CALM      30.14R
Somerville     FAIR      31  28  89 MISG      30.14R
Linden         FAIR      33  30  90 NW9       30.13R WCI  25
Perth Amboy      N/A     34 N/A N/A NW14        N/A  WCI  24
Sussex         FAIR      33  24  69 VRB6      30.12R WCI  28
Andover          N/A     31  24  75 NW8       30.14R WCI  23
Trenton        FAIR      33  29  85 NW7       30.14R WCI  27
Millville      FAIR      34  32  92 W6        30.21R WCI  29
Atlantic City  FAIR      35  34  96 W10       30.19R WCI  27
Wrightstown    FAIR      33  31  91 NW8       30.13R WCI  26
Toms River     FAIR      32  31  96 W10       30.16R WCI  24
Belmar         FAIR      32  31  96 W9        30.15R WCI  24
$$

PAZ047>061-062-071-181300-
Eastern Pennsylvania

CITY           SKY/WX    TMP DP  RH WIND       PRES   REMARKS
Philadelphia   FAIR      35  30  82 W8        30.19R WCI  29
Allentown      FAIR      33  25  72 NW17G24   30.15R WCI  22
Scranton       MOCLDY    29  26  89 W3        30.19R
$$

CTZ002-004>006-009-010-012-RIZ004-006-007-MAZ004-011-015-181300-
Southern New England

 In CT

CITY           SKY/WX    TMP DP  RH WIND       PRES   REMARKS
Bradley Intl   MOCLDY    33  26  75 NW14G23   30.04R WCI  23
Hartford       CLOUDY    32  29  88 CALM      30.07R FOG
Danbury        FAIR      32  27  81 W8        30.07R WCI  25
Wtrbury/Oxford FAIR      29  28  96 NW6       30.04R WCI  23
Norwalk Harbor   N/A     32 N/A N/A W10         N/A  WCI  24
Bridgeport     FAIR      33  29  85 W8        30.07R WCI  26
Meriden        FAIR      28  27  96 NW6       30.06R WCI  22
New Haven      FAIR      31  28  89 N3        30.06R
Chester        FAIR      32  30  93 CALM      30.03R
Groton         FAIR      34  29  82 NW9       30.03R WCI  27
Willimantic    FAIR      31  28  89 W9        30.03R WCI  23

 In RI

CITY           SKY/WX    TMP DP  RH WIND       PRES   REMARKS
Providence     MOCLDY    33  31  92 NW7       29.99R WCI  27
Block Island   FAIR      33  32  96 NW14G25   30.01R WCI  23
Westerly       FAIR      34  32  92 VRB7      30.02R WCI  28

In MA

CITY           SKY/WX    TMP DP  RH WIND       PRES   REMARKS
Boston         LGT SNOW  32  31  96 NW10      29.98  FOG     WCI  24
Worcester      FAIR      28  25  88 W18       29.96R WCI  15
Westfield      CLOUDY    33  28  81 VRB6      30.04R WCI  28
Provincetown   FLURRIES  34  33  96 NW18G25   29.93R WCI  23
Nantucket      RAIN      37  37 100 NW21G28   29.91R WCI  26
$$

ANZ330-335-338-340-345-350-353-355-181300-
Coastal Marine Observations


STATION/POSITION TIME  SKY/WX   TEMP    WIND        PRES    VSBY  WAVE
                                AIR SEA DIR/SP/G                  HT/PER
                 (UTC)          (F)     (DEG/KT/KT) (MB)    (MI)  (FT/S)
NY Harb Entrance 1150            37 39  300/ 21/ 25 1018.5          3/ 4
20 S Fire Island 1150            37 42  290/ 23/ 29 1018.5          5/ 5
15 E Barnegat Li 1030               41                N/A           4/ 4
Hudson Canyon    1150            41 47  310/ 27/ 37 1017.8          8/ 6
Kings Point      1124            35 35  350/ 12/ 18 1019.8
Execution Rocks  NOT AVBL
Western LI Sound NOT AVBL
Central LI Sound 1130            35     280/ 16/ 17   N/A           2
Robbins Reef     1124            35     290/ 13/ 16 1019.7
$$


>>>>>>>>>>>>>>>>>>>>>>>>>>>> KEY <<<<<<<<<<<<<<<<<<<<<<<<<<<
>                                                          <
>     SKY/WX - Sky Condition/Present Weather               <
>     TMP    - Temperature in Fahrenheit                   <
>     DP     - Dew Point in Fahrenheit                     <
>     RH     - Relative Humidity in Percent                <
>     WIND   - Direction (from) and Speed in MPH           <
>     PRES   - Mean Sea Level Pressure (inches of Hg)      <
>     WCI    - Wind Chill Index                            <
>     VSB    - Visibility in Miles                         <
>     HX     - Heat Index                                  <
>     TC     - Temperature in Celsius                      <
>     VRB    - Varibale Wind Direction                     <
>                                                          <
>>>>>>>>>>>>>>>>>>>>>>>>>>>> KEY <<<<<<<<<<<<<<<<<<<<<<<<<<<




USA.gov is the U.S. government's official web portal to all federal, state and local government web resources and services.